EHI
0 0 0 0 0 1 2 1 0 0 0 0 0 0 0 1 1 0 0 2 12 27 40 54 63 58 39 17 4 1 0 0 0 0 0 0 0 0 0 0 0 0 0 0 0 0 0 0 0
0 0 0 0 0 0 1 0 0 0 0 0 0 0 0 1 1 0 0 4 14 30 44 56 67 63 44 23 8 2 0 0 0 0 0 0 0 0 0 0 0 0 0 0 0 0 0 0 0
0 0 0 0 0 0 0 0 0 0 0 0 0 0 0 1 2 1 2 7 18 30 41 57 72 69 52 31 15 5 1 0 0 0 0 0 0 0 0 0 0 0 0 0 0 0 0 0 0
0 0 0 0 0 0 0 0 0 0 0 0 0 0 0 3 7 6 4 10 19 25 34 55 72 71 57 37 20 9 3 1 0 0 0 0 0 0 0 0 0 0 0 0 0 0 0 0 0
0 0 0 0 0 0 0 0 0 0 0 0 0 0 1 8 15 12 7 10 18 22 29 48 67 69 57 40 24 13 5 2 1 0 0 0 0 0 0 0 0 0 0 0 0 0 0 0 0
0 0 0 0 0 0 0 0 0 0 0 0 0 0 2 11 19 15 7 8 15 22 27 38 52 58 53 40 25 13 6 3 2 1 0 0 0 0 0 0 0 0 0 0 0 0 0 0 0
0 0 0 0 0 0 0 0 0 0 0 0 0 0 2 9 16 14 9 7 10 18 23 26 32 38 38 31 21 11 6 4 3 2 1 0 0 0 0 0 0 0 0 0 0 0 0 0 0
0 0 0 0 0 0 0 0 0 0 0 0 0 0 1 5 13 19 17 12 10 11 15 17 18 19 19 17 14 9 5 3 3 2 1 0 0 0 0 0 0 1 1 0 0 0 0 0 0
0 0 0 0 0 0 0 0 0 0 1 1 0 0 1 6 18 30 34 29 19 11 10 12 12 10 9 9 8 6 3 2 1 1 1 0 0 0 0 0 0 2 4 4 4 2 1 1 1
0 0 0 0 0 0 0 0 0 1 1 1 2 4 6 10 21 37 50 49 36 21 12 8 8 8 7 6 4 2 1 1 0 0 0 0 0 0 0 0 0 2 6 9 9 6 4 5 6
0 0 0 0 0 0 0 0 0 1 1 2 6 11 13 13 19 34 50 56 48 34 19 9 6 7 7 4 3 2 0 0 0 1 1 1 1 0 0 0 0 2 6 11 12 10 10 11 12
0 0 0 0 0 0 0 0 0 1 1 4 10 18 21 16 15 24 39 50 53 46 31 17 9 8 7 5 5 6 4 3 4 5 6 6 5 3 2 1 1 3 6 11 13 12 12 13 13
0 0 0 0 0 0 0 0 0 1 4 9 17 24 26 20 15 19 32 47 55 53 43 31 22 18 16 15 15 15 13 12 13 13 14 15 14 10 6 4 5 6 9 11 11 11 10 10 10
0 0 0 0 0 0 0 0 0 2 9 18 25 29 28 24 20 22 34 48 56 57 55 49 44 41 38 36 33 30 26 25 24 23 23 25 24 20 13 10 11 12 12 10 8 8 8 7 7
0 0 0 0 0 0 0 0 0 5 16 28 32 30 27 26 25 29 39 49 56 59 62 62 61 61 62 59 52 45 38 34 31 29 30 33 32 27 21 17 16 16 14 12 9 7 7 5 4
0 0 0 0 0 0 0 0 1 9 24 35 35 31 28 26 27 32 39 46 52 58 63 66 67 70 72 69 61 52 44 38 32 29 30 34 34 30 26 22 17 14 13 12 9 6 4 2 1
0 0 0 0 0 0 0 0 3 13 27 34 33 31 30 29 31 34 36 39 44 50 57 62 66 68 68 64 59 51 43 37 30 26 27 31 32 30 27 21 15 12 10 10 7 4 1 0 0
0 0 0 0 0 0 1 3 7 15 25 30 33 34 33 33 35 36 35 34 36 40 46 53 60 61 58 55 53 48 41 33 26 22 23 25 27 27 23 17 11 8 8 7 4 1 0 0 0
0 0 0 0 0 1 4 7 11 16 22 29 36 40 39 36 35 34 33 32 31 31 33 40 45 47 47 45 44 42 35 26 19 17 18 19 20 20 17 11 7 6 6 4 2 0 0 0 0
0 0 0 0 0 1 4 8 12 15 21 30 38 39 37 34 30 27 26 27 27 26 25 27 28 29 31 32 32 31 26 20 16 15 13 12 14 15 12 7 5 5 5 2 0 0 0 0 0
0 0 0 0 0 0 2 5 9 12 18 28 31 30 28 25 20 17 16 18 18 18 18 18 15 14 15 18 20 21 21 18 15 13 10 8 10 11 9 6 4 5 4 1 0 0 0 0 0
0 0 0 0 0 0 0 1 4 8 15 20 21 19 18 16 12 9 9 10 9 7 8 9 9 7 7 9 12 15 17 15 13 12 9 7 7 8 7 6 5 4 2 0 0 0 0 0 0
0 0 0 0 0 0 0 0 1 4 7 9 10 10 10 9 7 5 5 5 4 2 1 3 4 4 5 6 7 9 10 11 11 10 8 5 4 4 4 5 5 2 0 0 0 0 0 0 0
0 0 0 0 0 0 0 0 0 1 2 2 3 6 6 4 3 3 2 1 1 0 0 0 1 3 3 3 4 5 6 8 8 8 6 3 2 1 2 3 3 1 0 0 0 0 0 0 0
0 0 0 0 0 0 0 0 0 0 0 0 1 3 4 3 1 1 0 0 0 0 0 0 1 1 1 1 2 3 4 5 5 4 4 2 1 0 0 1 1 0 0 0 0 0 0 0 0
0 0 0 0 0 0 0 0 0 0 0 0 0 1 1 1 1 0 0 0 0 0 0 0 0 0 0 0 1 1 1 2 1 1 1 1 1 0 0 0 0 0 0 0 0 0 0 0 0
0 0 0 0 0 0 0 0 0 0 0 0 0 0 0 0 0 0 0 0 0 0 0 0 0 0 0 0 0 0 0 0 0 0 0 0 0 0 0 0 0 0 0 0 0 0 0 0 0
0 0 0 0 0 0 0 0 0 0 0 0 0 0 0 0 0 0 0 0 0 0 0 0 0 0 0 0 0 0 0 0 0 0 0 0 0 0 0 0 0 0 0 0 0 0 0 0 0
0 0 0 0 0 0 0 0 0 0 0 0 0 0 0 0 0 0 0 0 0 0 0 0 0 0 0 0 0 0 0 0 0 0 0 0 0 0 0 0 0 0 0 0 0 0 0 0 0
0 0 0 0 0 0 0 0 0 0 0 0 0 0 0 0 0 0 0 0 0 0 0 0 0 0 0 0 0 0 0 0 0 0 0 0 0 0 0 0 0 0 0 0 0 0 0 0 0
Wind_Speed
9 7 4 2 1 1 4 4 2 5 5 5 9 10 8 5 3 4 5 16 19 17 14 17 19 19 19 18 17 16 16 15 15 14 14 13 13 13 12 12 12 12 11 11 11 10 10 10 10
5 6 2 1 2 2 4 2 5 4 6 8 9 8 7 6 8 10 7 16 21 18 12 15 21 20 19 18 17 16 16 15 15 14 14 13 12 12 12 11 11 11 11 10 10 9 9 9 8
5 4 2 1 0 2 4 3 2 3 2 5 6 5 5 7 9 7 10 18 18 15 11 15 22 20 19 18 17 16 16 15 15 14 14 13 12 12 11 11 10 10 10 9 9 8 8 8 7
4 2 1 2 3 5 4 3 2 3 4 6 7 6 4 5 7 11 18 19 17 13 10 15 21 20 19 18 17 16 16 15 15 14 14 13 12 12 11 11 10 9 9 9 8 8 8 7 7
2 3 2 2 5 4 4 2 2 2 3 4 7 6 3 4 16 21 19 18 17 13 10 14 21 20 19 18 17 16 16 15 15 14 14 13 12 12 11 11 10 10 9 9 9 9 9 8 8
2 3 2 3 5 4 3 1 2 3 3 4 7 6 3 9 18 19 18 17 16 16 12 12 20 20 19 18 17 17 16 16 15 14 14 13 13 12 12 11 11 11 11 10 10 10 10 10 10
3 2 3 4 4 5 5 4 5 3 2 4 7 7 5 10 15 17 16 15 14 15 12 9 11 15 18 18 18 17 16 16 15 15 14 14 13 12 12 12 12 12 12 12 12 12 12 12 12
5 3 2 2 4 5 4 3 5 7 4 7 7 9 8 12 14 15 14 13 13 12 12 10 9 9 9 11 17 18 17 17 16 15 15 14 13 13 13 11 12 13 14 14 14 14 14 14 13
2 2 4 5 4 5 4 3 2 3 6 4 4 7 11 15 16 15 12 11 11 12 10 10 10 9 8 8 13 14 16 16 15 13 15 13 7 7 8 12 14 16 16 16 16 16 15 15 14
4 3 9 7 6 5 4 5 7 4 4 3 3 6 14 16 17 17 15 16 15 14 13 11 11 11 9 9 7 6 7 7 7 6 7 6 5 6 8 11 17 18 18 18 17 17 15 12 6
3 6 8 9 8 4 3 3 4 8 6 9 12 15 17 15 14 14 14 15 15 15 14 13 12 11 10 7 6 5 4 4 6 7 7 5 5 4 6 4 7 9 13 9 10 11 7 7 6
4 9 8 7 6 4 3 3 3 7 11 12 17 19 17 15 14 13 13 13 13 14 14 13 13 11 11 8 7 7 5 5 6 8 8 6 4 5 5 4 4 4 3 4 5 4 6 7 8
4 7 7 7 7 5 3 3 4 5 5 9 11 12 14 13 11 10 10 11 12 13 14 14 13 12 11 8 7 7 7 7 7 6 7 8 6 5 5 3 2 3 2 3 4 5 6 6 7
6 8 10 9 9 6 4 5 2 4 7 10 11 11 10 10 10 8 8 9 11 11 12 13 13 12 10 8 6 5 5 5 5 5 7 9 6 5 4 3 2 2 2 3 4 5 5 5 5
6 8 11 9 7 6 4 7 6 4 8 10 11 11 10 8 7 8 10 8 8 8 7 8 10 9 9 8 6 4 4 4 4 4 5 6 6 5 4 3 2 2 2 3 2 3 3 3 3
6 5 7 12 7 8 1 7 10 3 10 9 9 8 7 6 5 4 3 3 2 4 6 7 8 8 7 5 4 3 3 3 3 2 3 5 6 5 4 3 2 2 1 1 1 1 2 2 2
4 3 8 13 8 5 3 5 5 3 8 8 7 6 6 5 4 4 4 4 2 1 2 4 4 5 5 5 3 2 2 2 2 2 3 4 5 5 4 2 2 1 1 0 1 0 1 2 3
6 6 6 8 7 3 3 1 2 3 7 7 7 7 8 7 5 5 6 3 3 2 1 1 2 4 3 2 1 1 1 0 1 2 3 4 4 4 4 3 2 2 1 0 0 1 1 2 2
6 5 5 6 5 6 7 6 7 8 9 9 9 9 9 8 6 8 7 6 6 4 2 2 3 4 3 2 1 1 1 1 1 2 3 4 4 4 3 2 2 2 2 1 1 1 1 1 1
3 2 4 5 6 6 7 9 11 13 11 9 8 8 8 7 8 8 8 7 7 5 4 3 4 2 2 2 2 1 1 1 1 2 2 3 4 4 4 3 3 3 2 1 1 1 0 1 0
3 1 2 3 5 7 6 7 9 9 12 13 10 7 7 8 7 7 9 9 8 7 6 5 4 5 4 2 1 2 2 1 1 1 1 2 3 4 4 5 4 4 3 2 2 2 2 1 1
2 3 2 3 4 3 4 1 5 7 11 12 10 8 8 8 7 7 8 8 8 7 7 6 4 5 4 3 3 2 1 1 2 2 2 2 2 2 4 5 4 4 4 4 3 3 3 3 2
2 1 3 3 2 2 4 4 3 5 7 8 7 7 7 6 7 7 7 7 7 8 8 8 8 8 7 6 6 4 2 2 2 2 2 2 2 3 3 3 3 4 3 4 4 3 3 3 3
1 5 7 6 6 3 3 3 2 1 1 3 5 5 5 4 6 6 5 6 6 7 8 7 8 8 7 7 6 5 5 4 3 3 2 2 2 3 3 2 3 3 3 4 4 4 4 4 4
5 6 6 7 6 2 1 3 2 1 2 3 2 4 5 3 4 4 4 5 5 5 5 5 6 5 5 5 5 5 4 4 4 4 3 3 3 3 4 3 3 3 4 4 4 4 4 5 5
2 6 6 3 4 3 2 1 2 1 1 2 3 3 4 2 2 3 3 3 3 3 3 3 4 3 3 3 3 3 3 3 3 4 3 3 3 3 4 4 3 4 4 4 4 3 4 4 5
1 1 5 6 0 1 1 0 1 0 1 2 3 3 2 2 2 2 1 2 2 2 1 1 1 1 2 3 3 3 3 3 3 4 4 3 3 4 4 4 4 4 4 4 5 4 5 5 5
2 1 5 5 2 1 1 2 3 4 4 3 2 2 1 1 2 2 2 2 2 2 1 1 1 2 3 3 3 3 3 4 4 4 5 5 5 5 5 5 5 5 4 5 4 5 5 6 6
4 4 4 3 4 4 1 3 2 5 5 4 3 3 3 3 3 4 4 3 3 2 2 2 2 3 3 4 4 4 5 5 5 5 6 5 5 5 5 5 5 5 5 5 4 5 6 7 7
2 0 3 3 1 2 3 3 1 2 3 3 2 2 2 3 3 3 3 2 2 3 4 4 5 5 6 5 5 6 6 5 6 6 7 6 6 6 6 6 5 5 5 5 5 6 6 7 7
Wind_Direction
150 151 149 143 106 17 273 272 33 51 55 60 79 90 90 74 138 156 131 142 140 147 153 151 150 150 150 149 148 148 145 143 140 138 137 135 134 133 132 133 134 134 133 133 132 133 133 131 130
155 155 133 108 84 351 290 323 32 37 128 118 82 80 81 73 87 108 123 145 143 146 150 151 151 152 152 152 152 152 150 148 146 145 144 143 141 141 140 140 141 141 142 142 142 142 142 141 141
168 170 142 107 148 217 288 317 31 9 113 105 86 58 73 109 115 125 144 144 140 145 149 155 153 154 155 155 156 156 155 153 152 151 151 150 150 149 148 149 150 151 152 154 155 155 155 156 158
152 128 64 59 257 247 248 284 19 25 35 66 96 68 54 111 128 136 141 145 142 146 150 157 155 156 157 158 159 160 159 158 158 158 158 159 158 158 158 160 162 164 166 168 170 171 173 177 181
107 110 75 306 263 262 266 295 10 31 50 66 92 86 43 43 121 135 146 149 147 148 154 159 158 160 161 162 163 164 164 164 165 166 167 168 168 169 170 172 174 178 180 183 185 188 190 194 200
115 97 97 260 267 270 261 250 70 38 84 100 104 106 99 125 133 147 151 152 151 153 156 160 162 164 165 167 168 169 170 171 173 174 176 177 179 182 183 186 188 191 194 197 200 202 204 206 210
153 141 212 234 260 251 234 206 142 158 169 173 138 114 139 152 151 153 152 150 151 154 158 162 166 168 170 172 174 175 177 179 181 183 185 187 191 195 197 200 202 204 206 208 210 212 214 216 218
162 118 271 258 263 256 222 186 152 160 174 154 144 143 171 176 155 150 147 147 150 157 163 165 166 168 171 176 181 182 184 186 188 191 194 197 201 206 210 213 217 218 218 219 220 220 222 223 223
137 81 255 244 248 258 210 174 166 168 135 154 163 168 168 155 146 145 144 146 156 163 171 171 171 173 174 178 189 188 191 194 195 199 203 204 209 213 220 225 225 228 228 227 227 227 228 229 231
121 183 241 236 245 246 230 186 171 148 128 117 95 115 141 150 153 154 158 164 169 172 178 179 179 179 178 187 187 190 196 198 199 199 207 205 204 215 225 232 235 236 234 232 231 231 232 232 231
199 223 258 272 269 246 232 225 172 143 175 181 162 156 157 158 159 163 166 172 175 175 179 182 184 181 183 191 180 189 199 198 205 208 210 212 213 222 233 234 242 241 238 234 234 233 229 226 224
272 271 272 279 299 292 240 215 189 183 201 184 167 160 160 162 167 170 170 173 171 177 185 183 184 183 189 190 186 188 197 199 205 211 209 208 214 220 225 228 228 225 224 220 224 223 226 227 228
280 281 294 296 310 298 305 274 231 219 195 160 151 151 160 164 169 170 164 167 171 183 188 184 184 184 187 186 188 189 198 202 206 206 207 205 208 216 220 221 215 213 209 215 223 229 233 233 234
283 302 304 302 308 301 312 311 326 236 155 148 150 156 156 160 164 160 160 165 174 182 191 186 186 183 179 181 184 184 191 194 194 200 202 200 202 205 203 202 203 206 204 212 216 223 228 232 230
312 328 321 304 299 291 351 325 281 209 148 155 161 164 161 160 157 170 175 172 175 176 178 187 188 179 173 172 175 173 171 175 182 188 192 188 184 186 184 185 202 218 220 225 226 237 235 238 239
341 344 308 289 286 279 216 269 280 165 144 156 166 168 158 152 150 157 133 109 151 174 177 179 187 169 163 159 164 161 161 158 157 162 170 172 174 170 165 168 195 212 209 215 235 251 268 267 256
344 291 276 289 280 264 169 235 278 159 141 158 156 139 123 111 99 112 110 92 67 208 179 181 183 160 163 157 165 155 138 140 150 156 168 165 163 158 152 159 172 153 132 146 254 259 238 270 279
258 268 282 292 310 28 94 138 20 96 116 113 102 99 101 90 78 75 77 78 65 9 69 151 158 139 154 138 124 94 69 83 158 173 173 157 155 152 146 148 150 136 126 135 239 248 253 247 263
244 271 294 296 320 52 64 58 40 40 60 78 83 86 90 89 75 74 69 62 62 28 16 186 148 152 146 133 168 146 163 233 238 214 181 168 163 156 152 154 156 151 161 201 214 216 271 277 300
271 325 330 324 352 49 61 57 51 47 51 61 71 75 86 78 63 66 74 69 71 61 8 53 47 64 91 153 176 152 159 189 219 231 206 189 176 172 168 173 187 181 174 197 207 174 186 279 46
355 356 328 331 13 35 66 33 44 42 51 53 53 54 56 67 66 59 61 56 53 51 38 56 40 37 32 32 76 63 47 26 344 285 245 229 199 188 186 195 186 184 179 195 210 185 175 220 268
318 305 6 13 40 352 51 35 10 26 43 42 42 44 46 49 60 57 56 54 54 50 47 49 51 50 43 47 56 71 100 237 247 248 243 251 234 217 210 199 189 190 190 196 209 188 185 181 232
254 329 39 28 76 34 21 95 321 14 35 31 36 49 52 49 62 61 58 56 49 47 47 42 43 41 36 36 33 28 355 301 299 306 307 277 272 249 225 205 191 196 202 205 207 201 201 191 200
33 37 31 39 57 27 325 109 302 349 33 39 37 61 65 56 67 66 59 59 52 50 48 45 45 34 26 31 31 25 0 347 344 330 321 306 295 286 269 235 212 206 207 211 211 211 212 212 214
41 64 21 359 5 282 320 96 249 209 123 101 92 84 76 56 72 75 71 64 58 57 55 51 51 37 22 23 21 17 5 360 350 332 329 322 311 300 293 279 246 230 222 217 208 210 223 221 222
290 129 150 208 242 268 360 115 255 179 107 94 92 101 102 99 91 84 80 84 78 66 63 66 58 33 6 11 2 355 358 350 336 331 322 312 297 285 291 290 272 251 233 228 218 219 227 228 228
323 274 175 144 99 72 285 298 335 106 90 95 103 105 117 142 125 120 113 107 116 119 126 118 87 357 324 323 323 327 332 330 323 321 319 310 301 300 304 295 287 277 251 233 228 231 230 228 230
121 138 66 77 88 342 294 230 222 202 197 174 162 148 148 198 176 173 198 199 195 190 198 201 200 246 269 289 294 302 300 297 295 301 304 300 297 298 302 299 291 283 271 251 237 238 236 232 235
358 31 78 100 145 148 243 274 271 188 185 181 177 169 195 208 211 218 223 218 216 226 231 245 259 263 267 267 267 277 278 280 284 284 283 283 283 290 290 286 284 283 279 271 255 248 243 237 240
40 45 131 133 295 125 142 268 318 160 168 165 173 203 231 244 252 249 245 243 255 262 264 264 264 263 260 257 257 260 263 267 271 270 271 272 275 276 274 274 274 274 277 272 261 259 258 247 242